Regional Weather Roundup
Issued by NWS

Home | Current Version | Previous Version | Text Only | Print | Product List | Glossary Off
Versions: 1 2 3 4 5 6 7 8 9 10 11 12 13 14 15 16 17 18 19 20 21 22 23 24 25 26 27 28 29 30 31 32 33 34 35 36 37 38 39 40 41 42 43 44 45 46 47 48 49 50

000
ASUS43 KFSD 271802
RWRSD

WEATHER ROUNDUP FOR SOUTH DAKOTA
NATIONAL WEATHER SERVICE SIOUX FALLS SD
100 PM CDT SAT MAY 27 2017

NOTE: "FAIR" INDICATES FEW OR NO CLOUDS BELOW 12,000 FEET WITH NO
SIGNIFICANT WEATHER AND/OR OBSTRUCTIONS TO VISIBILITY.


SDZ001>005-009-010-012>017-271900-
NORTHWEST AND NORTH CENTRAL SOUTH DAKOTA

CITY           SKY/WX    TMP DP  RH WIND       PRES   REMARKS
BUFFALO          N/A     68  36  30 NW18G30   29.92F
FAITH            N/A     69  34  27 NW14G28   29.95F
MOBRIDGE       MOSUNNY   73  37  27 NW9       29.88F
$$

SDZ012>016-024>037-041>051-057-063-072>074-271900-
SOUTHWEST AND SOUTH CENTRAL SOUTH DAKOTA

CITY           SKY/WX    TMP DP  RH WIND       PRES   REMARKS
RAPID CTY ARPT MOSUNNY   68  37  32 N15G22    30.01F
PIERRE         SUNNY     67  47  48 SW6G18    29.94F
CUSTER         MOSUNNY   57  31  37 MISG      30.08S
ELLSWORTH AFB  MOSUNNY   66  36  32 NW20      30.01
PHILIP         MOSUNNY   70  37  29 N13       29.96F
PINE RIDGE     MOSUNNY   63  42  46 N10       30.04S
SPEARFISH      FAIR      61  36  39 W10G17    30.05S
WINNER         CLOUDY    62  53  72 VRB5      30.00S
$$

SDZ004>011-016>023-039-040-271900-
NORTHEAST SOUTH DAKOTA

CITY           SKY/WX    TMP DP  RH WIND       PRES   REMARKS
ABERDEEN       MOSUNNY   73  40  30 W16G26    29.89F
WATERTOWN      CLOUDY    69  46  43 NW13G21   29.91S
BROOKINGS      CLOUDY    65  47  52 SW7       29.94S
SISSETON         N/A     73  42  32 W16G22    29.86S
$$

SDZ017-020-022-023-036>040-048>070-271900-
SOUTHEAST SOUTH DAKOTA

CITY           SKY/WX    TMP DP  RH WIND       PRES   REMARKS
SIOUX FALLS    CLOUDY    63  53  70 SW7       29.96S
HURON          CLOUDY    67  44  43 NW13      29.93R
CHAMBERLAIN    CLOUDY    64  50  59 W6        29.98S
MITCHELL       CLOUDY    68  44  42 N3        29.95F
YANKTON        CLOUDY    60  52  74 W6        29.98S
$$

ABBREVIATIONS USED IN REMARKS
   TC - TEMPERATURE IN CELSIUS
  WCI - WIND CHILL INDEX
   HX - HEAT INDEX
  VSB - VISIBILITY





USA.gov is the U.S. government's official web portal to all federal, state and local government web resources and services.